Location: Caltech
(34.1382°N, 118.1253°W)
Time: 14:07:59
(UTC-07:00)

Cosmos 2084 - Visible Passes

Search period start: 27 July 2016 00:00
Search period end: 06 August 2016 00:00
Orbit: 505 x 683 km, 62.8° (Epoch: 27 July)

Date Brightness Start Highest point End Pass type
(mag) Time Alt. Az. Time Alt. Az. Time Alt. Az.
27 Jul 5.0 21:38:22 10° WSW 21:41:54 33° NW 21:45:23 10° NNE visible
28 Jul 6.2 21:48:29 10° W 21:51:12 18° NW 21:53:54 10° N visible
29 Jul 6.7 04:37:20 10° NNE 04:39:37 14° NE 04:41:56 10° E visible
29 Jul 3.1 20:16:52 10° SSW 20:20:43 65° ESE 20:24:31 10° NE visible
29 Jul 7.0 22:00:14 10° NW 22:00:37 10° NW 22:00:59 10° NW visible
30 Jul 6.0 04:45:32 10° N 04:48:57 24° NE 04:52:31 10° ESE visible
30 Jul 3.9 20:26:01 10° SW 20:29:51 58° WNW 20:33:38 10° NNE visible
31 Jul 4.7 04:54:14 10° NNW 04:58:13 44° NE 05:02:24 10° SE visible
31 Jul 5.5 20:35:40 10° WSW 20:39:04 29° NW 20:42:27 10° N visible
01 Aug 3.4 05:03:13 10° NNW 05:07:23 87° NE 05:11:48 10° SSE visible
01 Aug 6.4 20:45:56 10° W 20:48:23 16° NW 20:50:50 10° N visible
02 Aug 6.4 03:34:13 10° N 03:36:48 16° NE 03:39:27 10° E visible
02 Aug 3.7 05:12:29 10° NW 05:16:30 46° WSW 05:20:43 10° S visible
03 Aug 5.5 03:42:34 10° N 03:46:08 27° NE 03:49:51 10° ESE visible
03 Aug 4.5 05:22:07 10° WNW 05:25:33 24° WSW 05:29:06 10° SSW visible
04 Aug 4.2 03:51:19 10° NNW 03:55:22 51° ENE 03:59:37 10° SE visible
04 Aug 5.2 05:32:41 10° W 05:34:31 13° WSW 05:36:24 10° SW visible
05 Aug 6.7 02:24:06 10° NE 02:24:33 10° NE 02:25:02 10° NE visible
05 Aug 3.2 04:00:22 10° NNW 04:04:31 81° WSW 04:04:52 73° S visible
